Weather Roundup
Issued by NWS Springfield, MO

Home | Current Version | Previous Version | Text Only | Print | Product List | Glossary On
Versions: 1 2 3 4 5 6 7 8 9 10 11 12 13 14 15 16 17 18 19 20 21 22 23 24 25 26 27 28 29 30 31 32 33 34 35 36 37 38 39 40 41 42 43 44 45 46 47 48 49 50
000
NZUS99 KSGF 180407
HRRSGF

HOURLY WEATHER
NATIONAL WEATHER SERVICE SPRINGFIELD MO
1100 PM CDT WED SEP 17 2014

......SGF CWA......

CITY           SKY/WX    TMP DP  RH WIND       PRES   REMARKS
SPRINGFIELD    MOCLDY    65  63  93 E5        29.93F
JOPLIN         MOCLDY    65  63  93 N8        29.93R
WEST PLAINS    FOG       62  60  93 E6        29.99S VSB 1/4
ROLLA          CLOUDY    62  61  96 E3        29.97R FOG
OSAGE BEACH    CLOUDY    66  61  82 E6        29.97R
BRANSON        FOG       64  63  94 SE5       29.96S VSB<1/4

......SURROUNDING SGF CWA......

CITY           SKY/WX    TMP DP  RH WIND       PRES   REMARKS
CHANUTE        MOCLDY    72  69  90 E9        29.91R
PARSONS        CLOUDY    72  64  76 VRB3      29.91R
COFFEYVILLE    CLOUDY    73  66  78 E5        29.89R
EMPORIA        MOCLDY    68  67  96 E8        29.92R
GROVE OK       CLOUDY    68  68 100 SE3       29.93R
ROGERS AR      MOCLDY    65  62  90 CALM      29.96R
SILOAM SPRINGS CLOUDY    66  61  82 SW5       29.95R
HARRISON AR    MOCLDY    63  63 100 CALM      29.95F
NEAR YELLVILLE CLOUDY    63  59  88 E5        29.95S VSB 1/4

......KANSAS AND MISSOURI......

CITY           SKY/WX    TMP DP  RH WIND       PRES   REMARKS
KANSAS CTY INT CLEAR     66  63  90 E5        29.96R
DOWNTOWN KC    CLEAR     65  63  93 E5        29.95R
COLUMBIA       CLOUDY    61  60  97 E8          N/A  FOG
SEDALIA        CLOUDY    64  61  90 E7        29.97R FOG
ST JOSEPH      CLEAR     60  59  96 CALM      29.96R
ST LOUIS       CLOUDY    63  55  75 E3        30.01R
SPIRIT OF STL  CLOUDY    61  57  87 NE7       29.99R
KIRKSVILLE     CLEAR     59  57  93 E6        30.01R FOG
WICHITA        CLOUDY    79  68  69 E9        29.85S
TOPEKA         CLEAR     65  64  97 NE3       29.95R FOG
OLATHE         CLEAR     64  64 100 SE3       29.95R FOG

......TENNESSEE......

CITY           SKY/WX    TMP DP  RH WIND       PRES   REMARKS
MEMPHIS        MOCLDY    69  63  81 E6        29.96R
NASHVILLE      CLOUDY    65  60  84 CALM      29.99R

......ARKANSAS.......

CITY           SKY/WX    TMP DP  RH WIND       PRES   REMARKS
FAYETTEVILLE   CLOUDY    66  66 100 CALM      29.95R
FT SMITH       CLOUDY    75  69  81 S15G25    29.86F
LITTLE ROCK    CLOUDY    74  69  85 CALM      29.92S

......OKLAHOMA.......

CITY           SKY/WX    TMP DP  RH WIND       PRES   REMARKS
TULSA          CLOUDY    76  67  73 S12       29.89R
PONCA CITY     CLOUDY    80  68  66 S7        29.86R
MCALESTER      CLOUDY    75  66  73 NE13G21   29.96R
OKLAHOMA CITY  CLOUDY    76  67  73 S5        29.90R

......IOWA............

CITY           SKY/WX    TMP DP  RH WIND       PRES   REMARKS
DES MOINES     CLEAR     65  57  75 SE7       30.00R
QUAD CITIES    CLEAR     53  50  89 CALM      30.02S

......ILLINOIS........

CITY           SKY/WX    TMP DP  RH WIND       PRES   REMARKS
QUINCY         CLEAR     57  55  93 E5        30.01R
CHICAGO        CLEAR     61  48  62 CALM      30.03R



USA.gov is the U.S. government's official web portal to all federal, state and local government web resources and services.